GFSSE_850_thetae_273.txt.gz
Theta_e
334 337 338 336 330 328 330 331 331 330 331 330 327 324 329 332 334 335 331 332 325 329 330 321 330 332 331 326 329 329 328 327 326 323 316 320 321 322 325 327 328 327 325
333 334 337 339 328 324 324 325 328 329 330 330 327 324 328 332 334 334 334 333 330 322 332 327 329 328 324 320 320 326 324 320 320 319 322 324 318 323 325 326 327 325 323
333 333 337 338 333 327 323 323 322 328 329 329 328 325 324 330 334 334 334 331 330 332 331 322 325 318 315 314 320 325 323 323 323 323 324 324 325 320 323 324 324 322 321
334 334 336 337 338 332 329 328 326 326 328 328 328 327 323 327 334 334 333 331 331 330 329 321 312 314 314 313 322 324 325 323 325 324 323 322 323 322 321 320 321 320 319
332 335 336 336 336 335 331 330 327 322 321 323 326 325 324 324 333 334 333 330 331 332 326 322 315 316 310 318 322 324 324 323 325 324 324 323 322 321 318 317 317 318 319
331 333 334 334 335 335 333 330 319 315 315 316 317 317 318 321 330 333 332 331 329 332 324 321 317 314 311 311 318 322 322 321 323 324 324 322 321 319 316 315 317 315 315
329 331 332 333 333 334 334 326 321 320 316 318 315 313 312 316 326 330 330 328 329 330 324 322 317 315 313 310 312 317 316 319 321 320 322 322 320 323 322 319 318 316 315
327 329 329 330 332 333 333 326 329 330 326 324 323 322 322 315 316 323 326 326 330 329 325 321 317 316 316 313 310 310 311 313 319 320 321 322 320 320 321 321 319 315 313
324 325 326 328 328 330 330 329 329 328 327 323 322 322 326 328 325 324 325 326 331 330 326 320 317 317 316 316 312 309 309 317 319 320 320 321 319 315 318 314 309 306 305
320 322 324 324 325 327 328 328 327 326 326 326 323 318 325 329 328 329 329 329 331 330 327 319 320 318 316 315 314 313 309 313 318 319 321 321 319 313 309 307 306 305 305
316 317 320 321 322 324 327 327 326 327 327 328 326 322 318 323 326 328 330 330 332 330 326 319 322 320 318 316 315 314 315 318 318 318 318 321 317 310 305 305 304 304 304
315 316 317 317 319 321 323 325 326 326 327 329 328 325 319 318 327 326 330 331 331 329 325 325 321 318 318 318 317 315 318 315 317 317 317 311 309 306 305 305 305 305 305
314 315 316 316 318 318 319 321 324 325 323 326 326 328 325 322 326 325 328 331 331 330 327 322 320 318 322 320 318 315 314 316 315 314 313 311 310 309 309 310 310 310 311
310 313 315 316 316 316 317 319 318 321 322 321 321 329 326 322 321 323 326 329 330 329 326 322 321 322 321 321 319 318 317 317 317 316 315 313 312 312 312 315 316 316 317
307 311 313 314 316 316 315 317 318 318 319 320 319 323 327 322 321 321 323 329 328 329 327 320 320 324 321 320 319 319 320 319 319 319 318 316 315 315 315 316 318 319 321
303 306 308 314 315 316 316 316 317 318 319 320 320 323 322 324 323 321 323 329 325 328 327 321 322 319 321 320 320 320 320 320 320 319 318 318 317 316 316 316 315 315 315
299 300 303 307 314 314 315 316 316 317 318 322 322 321 322 324 321 321 322 327 326 326 326 323 322 320 319 320 320 320 321 320 319 320 317 316 316 316 316 317 316 316 315
298 299 300 302 304 311 313 316 316 317 318 319 324 325 325 323 322 321 322 325 327 325 327 321 319 319 320 320 320 321 321 321 320 320 320 318 317 317 317 316 317 316 316
297 297 299 301 302 304 311 315 316 317 318 319 325 325 325 323 322 321 322 324 326 325 326 324 319 319 320 320 321 322 321 320 321 321 321 319 319 318 318 317 317 316 315
298 297 297 300 302 303 305 313 316 317 319 319 324 325 324 323 324 322 321 323 324 326 325 323 321 319 321 321 321 321 320 320 319 321 320 320 319 319 318 318 317 316 315
298 297 296 299 301 303 303 309 316 317 317 319 320 323 322 321 324 324 323 322 323 323 324 324 323 321 321 321 322 321 320 319 321 321 321 320 319 318 316 317 316 315 314
296 296 295 297 302 302 303 304 312 316 317 316 318 320 319 321 324 325 324 322 322 322 323 324 323 321 322 322 321 321 322 321 321 316 315 314 314 315 314 314 314 315 317
296 295 295 295 301 302 302 302 306 314 315 316 317 320 319 321 322 324 325 324 323 322 323 322 322 321 321 321 321 321 321 318 318 317 317 315 315 317 316 315 316 320 321
295 295 296 298 302 302 302 302 303 309 312 313 314 319 317 320 321 323 323 323 325 323 322 322 322 321 321 322 321 319 319 319 320 319 319 317 317 316 316 317 319 320 319
296 295 298 300 301 302 302 302 302 306 309 310 311 316 318 319 320 321 323 323 324 323 322 322 321 321 321 321 319 319 318 319 318 319 319 319 318 317 317 317 317 319 319
296 295 299 299 301 301 302 302 302 303 304 305 310 313 316 318 319 319 321 322 324 323 323 322 322 320 320 320 320 318 319 320 319 318 318 318 318 318 318 319 318 318 317

GFSSE_850_thetae_276.txt.gz
Theta_e
332 333 336 338 334 333 333 330 330 331 329 329 327 322 328 332 334 334 330 331 321 328 322 332 332 329 328 331 331 330 328 326 321 314 324 320 323 323 328 329 326 323 321
332 333 334 336 337 331 329 328 328 327 328 329 326 324 328 332 334 335 333 331 331 331 330 330 330 328 323 327 328 327 325 320 318 324 316 322 326 326 328 326 325 322 322
331 332 334 336 338 327 326 328 326 326 328 329 327 324 325 331 334 334 334 330 329 332 328 329 322 314 314 318 325 321 322 321 323 325 324 322 323 324 325 324 321 321 321
331 332 334 335 335 334 328 327 328 326 329 328 328 326 322 327 332 334 334 330 332 331 330 319 311 310 311 316 323 323 323 323 323 321 323 323 321 321 322 322 321 320 320
330 331 333 335 334 337 333 330 330 327 327 327 327 327 324 321 332 334 333 330 332 330 326 315 318 310 314 321 323 322 323 325 325 323 322 321 321 320 320 318 319 320 320
327 330 332 333 334 334 335 334 333 326 321 320 322 324 324 322 328 333 333 330 329 331 326 319 318 312 317 318 322 322 322 323 323 323 321 321 319 316 318 320 314 315 313
325 327 330 331 332 333 334 333 329 322 318 317 316 316 318 322 325 331 332 331 329 329 324 321 316 313 312 316 320 320 321 321 320 322 322 320 323 322 320 319 318 316 313
320 324 326 328 330 332 332 331 329 327 321 325 323 320 315 318 324 329 330 329 328 328 325 320 317 315 313 312 315 316 319 319 320 321 321 320 320 322 321 319 316 317 311
316 318 322 325 326 328 330 329 329 328 328 327 324 324 324 322 318 321 324 326 327 330 326 319 317 316 315 313 310 311 313 319 320 321 320 318 315 318 320 314 309 305 305
314 316 318 319 323 325 327 329 330 328 325 326 324 323 323 327 327 325 325 325 327 330 327 319 319 317 316 314 310 308 316 319 318 320 321 320 317 309 310 308 306 305 304
313 314 316 316 318 321 324 327 326 327 326 325 326 325 320 323 329 328 329 328 328 331 328 321 321 320 318 315 314 313 316 318 318 319 318 319 316 311 306 304 304 303 303
311 312 314 315 315 318 321 324 324 325 326 326 326 326 325 320 323 324 327 330 330 331 328 324 323 320 318 317 315 316 316 317 317 317 315 316 312 307 305 306 307 308 308
307 308 312 314 315 315 317 319 321 323 326 326 325 326 327 322 324 327 325 329 330 330 329 326 324 318 318 318 316 314 314 315 313 313 312 311 310 309 309 311 312 312 315
305 307 309 311 313 315 316 316 317 318 323 324 322 322 321 326 324 324 324 327 330 330 328 327 325 321 321 320 318 315 315 316 316 315 314 313 311 312 312 314 317 318 319
301 302 305 308 311 315 315 316 316 316 317 318 321 322 323 321 324 324 324 326 331 328 327 325 324 320 323 321 319 318 318 318 319 318 317 316 315 315 315 315 317 320 320
300 300 300 302 305 311 314 315 316 316 316 317 318 319 321 320 322 324 322 324 327 328 328 325 322 323 324 320 319 319 320 320 319 319 317 315 316 316 316 316 316 315 315
298 298 298 300 302 304 312 313 315 316 317 317 318 320 320 322 321 323 321 323 327 325 326 326 319 322 321 320 320 320 320 321 319 319 319 317 316 316 316 316 316 316 316
298 297 297 298 300 302 304 310 314 316 316 317 318 319 320 322 322 321 321 321 324 326 325 326 321 321 320 320 320 321 321 321 321 320 320 319 318 318 317 317 317 317 316
298 297 297 297 299 301 303 306 312 315 316 317 319 320 321 322 322 323 321 318 324 324 325 325 322 322 320 320 319 321 321 321 320 320 320 319 319 319 318 317 317 316 315
298 297 297 296 297 300 302 303 310 314 317 317 319 322 324 324 323 323 321 319 323 326 326 325 323 320 319 319 320 322 321 320 319 319 320 320 321 319 317 318 317 317 315
298 297 296 295 297 300 301 303 308 314 316 317 318 320 325 324 324 322 318 319 323 325 326 324 324 319 319 321 321 321 320 320 319 320 324 323 320 320 321 319 319 316 314
298 296 295 295 297 301 302 303 304 313 315 317 317 318 323 324 322 319 319 322 323 324 325 323 323 322 321 321 321 321 321 321 321 321 315 315 314 315 315 314 314 314 317
299 295 296 299 300 302 302 303 303 311 313 315 316 318 321 322 321 323 323 323 322 323 324 324 323 323 321 320 321 321 321 319 320 317 317 316 315 316 316 315 315 318 320
299 295 299 301 302 302 302 303 303 309 312 312 315 316 318 319 320 322 323 324 323 323 323 323 323 322 321 320 321 321 320 319 319 318 318 317 316 316 316 316 317 318 318
299 295 297 300 301 301 302 303 303 306 311 311 313 313 316 319 319 318 322 323 324 323 323 323 322 322 322 321 320 320 318 318 318 318 318 318 319 318 317 318 318 318 317
299 295 296 297 299 301 301 302 303 303 306 312 311 312 315 317 317 316 319 322 322 323 324 323 322 321 321 321 321 319 318 317 319 318 317 318 319 318 318 318 318 318 317

GFSSE_850_thetae_279.txt.gz
Theta_e
331 331 332 335 337 334 334 332 331 331 330 328 326 323 331 332 333 333 330 327 320 326 330 330 328 330 329 328 328 328 326 318 321 319 324 324 324 329 327 325 322 320 321
330 330 331 334 337 334 332 331 329 328 328 328 326 322 327 331 333 334 332 328 328 328 332 333 329 327 329 329 329 326 322 318 318 320 326 328 329 328 326 323 321 322 321
330 330 331 333 336 337 330 330 328 327 327 328 326 324 327 331 333 334 333 330 329 331 328 329 327 322 324 325 325 320 321 324 323 321 323 324 326 325 324 322 321 322 322
328 330 331 334 334 336 330 330 330 326 327 328 328 325 324 329 332 333 333 330 330 325 327 324 313 313 320 324 322 322 322 323 323 322 321 320 323 323 323 322 320 321 322
325 328 331 332 333 333 335 330 331 331 329 328 328 327 325 326 331 333 332 330 331 326 322 323 312 311 321 324 323 323 324 323 322 321 321 319 322 321 321 320 320 319 318
321 325 328 330 332 333 333 335 330 333 330 328 327 326 325 326 330 333 333 330 330 327 323 323 312 322 321 324 322 322 322 323 322 320 319 317 317 320 319 316 314 314 313
315 319 324 328 329 331 332 332 331 329 326 322 322 325 325 324 325 332 333 330 330 327 324 320 314 314 316 321 320 321 321 322 322 321 319 322 322 319 319 320 319 317 310
311 314 316 320 326 327 330 331 330 326 327 321 319 318 318 322 323 330 332 331 329 328 324 318 315 313 313 319 319 321 320 319 320 321 319 320 322 320 320 314 316 309 305
312 312 315 316 318 324 327 329 329 328 328 325 325 324 324 317 322 326 330 331 328 329 326 319 322 315 313 314 316 318 318 320 320 320 320 316 321 322 320 311 306 305 304
310 311 314 315 317 319 324 326 328 329 329 326 325 324 324 325 322 321 325 327 327 328 329 318 318 316 314 312 310 313 318 319 320 320 320 319 313 317 312 306 305 304 303
309 310 312 314 314 315 321 323 326 328 328 325 324 323 322 323 328 327 324 325 327 328 329 320 319 317 314 311 309 314 317 317 316 318 318 316 310 308 305 304 304 304 305
308 308 309 312 313 314 315 321 323 326 326 325 323 324 325 319 321 327 327 327 327 329 329 324 321 320 316 314 312 313 316 317 317 316 315 316 313 307 305 308 308 309 310
304 305 307 310 311 313 314 316 320 322 325 325 326 326 326 325 319 325 326 327 329 330 326 322 323 318 317 315 315 314 313 314 313 313 311 311 310 309 310 312 312 315 317
302 302 302 304 309 311 314 316 317 318 322 323 325 326 325 326 320 324 325 325 329 330 329 327 323 320 318 317 315 314 315 315 314 314 313 312 311 313 313 315 318 318 322
301 300 300 301 303 308 313 315 316 317 317 319 322 323 322 322 321 319 323 324 327 329 329 326 327 323 320 319 317 316 317 318 318 317 316 315 315 315 315 314 317 318 318
300 299 299 299 300 303 307 313 315 316 316 316 317 317 320 321 322 318 323 325 324 326 327 327 326 324 323 321 319 318 319 319 319 318 316 315 316 316 315 316 316 316 316
301 299 298 298 298 300 302 306 313 315 316 316 317 317 319 320 322 320 319 324 325 324 326 326 323 322 323 321 319 319 320 320 319 319 320 318 317 317 316 316 317 316 316
302 298 297 297 297 298 301 303 309 314 316 315 316 317 318 320 321 320 321 325 323 323 325 326 322 323 324 321 320 320 320 321 321 320 320 320 319 318 318 317 317 317 316
302 298 297 296 296 297 299 302 304 312 314 314 315 318 319 319 320 321 322 322 321 324 325 325 323 321 322 320 320 320 321 321 320 320 320 320 319 319 318 318 318 317 315
302 298 297 296 295 296 298 302 303 310 314 315 316 318 319 321 320 321 322 322 321 325 325 325 325 321 321 320 319 320 322 320 319 319 321 320 320 320 320 316 319 317 314
301 298 296 295 297 298 299 301 303 311 312 315 317 318 321 321 322 322 322 323 318 322 323 325 325 322 321 319 320 321 322 320 320 320 321 320 320 318 318 315 316 315 314
301 299 296 298 300 301 302 302 303 311 313 315 316 317 318 324 323 323 324 323 320 320 323 325 325 323 319 319 320 321 320 320 321 321 318 317 316 315 315 314 314 314 316
301 300 295 300 301 302 302 302 302 308 311 313 315 317 317 319 323 323 323 319 319 321 323 324 324 323 320 320 321 320 320 319 321 316 316 317 315 315 315 315 314 316 318
301 299 295 298 300 301 302 302 302 305 309 312 314 316 316 320 323 321 319 319 321 322 323 324 322 322 322 321 321 321 320 318 318 318 317 317 317 316 317 317 317 317 317
300 299 295 296 298 300 301 302 302 303 306 310 312 314 318 319 320 323 321 321 323 324 324 323 323 323 322 320 320 320 320 319 318 318 317 316 316 317 318 317 317 317 317
300 299 294 296 299 300 301 302 302 302 304 305 310 313 317 317 318 318 320 322 323 323 323 323 323 323 322 321 320 320 319 318 317 318 318 317 318 318 318 317 316 316 316

GFSSE_850_thetae_285.txt.gz
Theta_e
327 328 329 330 332 335 335 334 333 332 331 327 324 326 330 331 332 331 332 329 320 317 317 320 329 331 332 330 326 326 323 322 323 325 325 330 327 324 321 316 326 327 324
324 327 328 329 331 334 336 333 332 331 331 328 326 325 329 331 331 332 331 322 319 332 330 329 329 330 331 327 327 321 317 325 323 324 329 329 326 324 320 321 323 324 322
320 322 327 329 330 332 334 335 332 330 330 329 328 324 326 331 332 333 331 320 329 332 331 328 331 330 327 324 326 317 319 325 324 327 329 326 324 322 323 323 324 322 323
315 317 321 326 328 331 333 334 332 330 329 328 328 325 323 327 331 333 331 321 331 333 333 330 327 326 327 327 320 317 319 326 326 327 325 323 322 320 322 323 325 325 324
312 311 313 318 325 328 331 332 333 330 330 328 328 328 325 326 331 333 331 328 332 331 331 329 326 323 322 319 323 323 320 322 322 323 324 323 322 322 320 320 321 321 321
311 309 309 310 314 324 327 330 331 333 330 329 328 329 328 324 328 331 332 329 329 329 322 323 324 320 319 320 321 321 321 321 319 317 317 319 319 321 320 313 313 311 311
309 308 308 308 310 315 325 327 330 331 331 331 329 329 328 327 324 330 332 330 327 327 328 316 322 325 323 323 323 322 321 320 318 316 315 319 319 320 321 312 309 307 306
307 307 307 308 309 310 315 324 326 329 329 329 330 328 327 327 325 327 332 331 326 327 326 326 322 324 323 324 323 322 321 320 319 321 320 320 320 316 310 306 305 304 304
306 306 307 308 309 310 312 318 323 327 328 328 328 328 326 324 324 323 330 332 329 324 323 325 321 324 323 322 320 320 320 320 319 318 318 322 322 320 312 307 304 304 303
305 305 307 308 309 311 312 314 321 323 325 326 327 327 326 324 323 323 325 330 331 325 323 317 319 321 321 321 319 319 319 319 319 318 315 323 323 321 310 305 304 303 303
304 304 305 307 308 310 312 312 317 320 325 325 326 323 321 321 320 321 323 330 330 326 326 323 320 318 319 320 320 318 318 318 319 318 317 314 320 315 305 304 305 306 310
304 303 303 303 305 308 311 312 313 319 321 325 324 325 322 321 320 319 320 326 329 328 323 324 318 318 317 320 319 317 317 317 317 317 315 311 311 306 306 308 309 311 316
304 304 302 301 301 302 307 311 312 314 318 322 323 325 324 322 319 319 323 324 324 323 326 327 317 315 316 319 318 316 316 315 315 315 312 314 312 308 311 311 314 316 319
305 304 303 302 300 300 301 308 311 313 315 319 321 321 323 323 322 320 319 323 325 325 326 327 318 314 311 310 311 315 315 315 313 312 310 311 310 311 312 315 318 321 322
305 305 304 303 301 299 299 302 309 312 314 316 319 321 322 323 324 322 321 319 325 326 326 327 320 321 318 315 314 315 314 314 314 315 314 313 313 314 314 317 319 319 318
305 304 304 303 300 297 297 298 302 308 312 314 315 317 320 321 323 323 322 321 319 325 326 326 323 323 318 315 314 314 316 317 317 316 315 315 315 315 315 315 315 316 316
305 305 304 301 298 296 296 297 298 302 307 312 314 315 316 318 321 322 321 318 317 322 324 323 322 321 319 317 320 319 318 319 318 318 317 316 316 316 316 316 316 316 316
305 304 303 299 298 296 295 295 297 299 302 310 314 315 315 316 318 322 321 318 316 319 321 323 324 324 320 320 322 320 319 319 319 319 320 320 319 318 318 318 318 317 317
304 304 302 300 299 296 300 300 297 298 302 306 311 313 314 316 317 318 322 321 321 319 320 321 323 322 321 320 320 320 319 320 320 320 320 320 319 320 317 317 317 317 316
304 303 301 300 298 297 301 302 301 299 302 306 311 313 313 314 316 318 321 319 321 320 318 322 323 322 322 321 320 319 320 320 321 321 320 319 319 318 317 316 316 315 314
304 302 301 300 296 297 301 302 302 301 304 307 311 312 314 314 316 318 318 321 321 319 318 321 323 323 323 323 321 320 320 321 321 320 320 318 320 319 316 315 316 316 314
303 302 301 299 295 297 300 302 302 302 304 309 311 313 314 315 317 318 318 320 322 321 321 321 320 322 322 323 321 320 321 321 319 319 318 318 316 317 316 315 315 315 314
302 301 300 298 295 296 299 301 301 302 306 308 309 313 315 316 317 317 319 319 321 321 322 321 321 322 322 322 321 320 320 319 319 318 319 318 315 316 315 316 316 315 314
302 301 300 297 295 299 299 301 302 301 305 308 310 314 315 317 317 318 320 320 321 320 322 321 320 322 322 323 321 319 320 319 318 316 317 315 315 315 314 315 315 316 316
302 301 299 295 295 300 301 301 301 301 305 308 309 312 315 315 315 318 321 320 321 321 322 319 320 321 321 322 321 319 320 319 319 317 316 315 316 315 315 315 316 315 315
301 300 298 294 296 300 301 301 301 302 304 306 309 311 313 316 315 320 320 322 321 321 321 317 320 320 322 323 320 319 320 320 318 318 317 316 314 314 314 314 315 315 314

GFSSE_850_thetae_291.txt.gz
Theta_e
322 324 326 326 327 328 330 332 334 334 333 331 328 326 328 330 330 332 332 330 327 321 318 324 327 331 331 329 324 322 329 331 330 329 327 324 319 324 326 326 324 319 319
319 317 320 321 324 327 329 331 333 332 332 331 329 326 325 329 330 331 331 330 327 318 322 328 332 333 331 328 326 320 323 328 327 330 327 325 319 325 325 323 322 321 321
315 314 314 314 316 324 327 329 331 334 332 330 330 328 326 326 329 330 331 330 322 318 324 329 332 333 331 327 324 317 319 324 326 329 326 323 317 322 322 322 324 320 322
315 314 312 310 310 312 319 326 330 332 333 331 330 329 327 325 328 330 331 331 322 330 331 330 331 332 328 325 323 319 321 323 325 327 324 321 323 327 327 325 324 322 317
313 311 308 307 307 307 309 314 324 330 332 332 330 329 328 326 326 329 331 331 329 331 332 331 331 329 326 324 321 317 321 323 325 324 322 321 324 325 323 324 324 321 315
309 306 306 306 306 306 306 308 312 323 329 330 331 330 328 328 326 327 330 331 331 331 332 331 330 327 325 323 317 323 324 324 325 323 322 322 319 321 321 319 320 320 315
306 305 305 305 305 305 306 306 307 312 324 328 330 330 330 328 327 326 330 332 328 331 332 330 328 326 324 320 321 321 324 324 323 322 322 320 319 318 318 313 310 307 305
305 305 305 305 305 306 306 306 307 307 314 323 327 328 329 329 328 327 329 331 329 333 328 326 324 320 320 322 323 321 321 318 318 314 316 316 317 316 308 306 305 304 303
305 304 304 304 304 305 306 307 307 308 309 320 322 327 328 328 328 326 325 329 331 331 327 325 324 321 321 322 322 321 317 317 317 318 319 317 317 315 307 305 304 303 303
305 305 305 304 304 303 304 306 307 308 309 312 319 322 325 325 327 327 323 323 323 328 328 326 324 325 323 323 321 319 317 318 317 317 321 320 320 316 306 304 303 304 309
305 305 305 305 304 303 303 303 305 308 309 310 315 318 324 325 325 327 325 324 323 326 327 326 325 325 323 323 323 321 318 318 318 315 321 322 321 319 305 304 306 310 314
305 305 305 305 304 304 303 302 302 303 308 309 314 317 320 324 324 325 325 325 324 323 325 328 325 325 323 322 320 319 319 319 318 316 316 322 322 316 305 307 310 316 319
306 305 305 305 304 302 302 303 302 301 302 308 311 315 320 323 322 323 322 322 322 323 324 323 323 323 324 322 319 318 318 318 318 317 315 312 312 306 309 311 313 318 322
306 306 306 305 304 302 300 300 299 301 300 304 311 313 317 319 321 322 321 321 322 323 325 324 323 321 323 322 319 318 318 317 316 316 315 315 310 311 312 314 321 322 321
306 306 305 305 305 303 300 298 297 297 298 299 308 312 314 316 318 322 322 322 323 322 322 323 322 321 322 320 319 318 317 316 315 313 312 312 311 313 315 317 319 319 317
307 306 305 305 304 303 300 299 297 296 296 297 301 310 313 315 317 319 319 319 320 321 322 320 321 321 317 318 313 312 317 315 314 313 312 313 314 314 314 315 315 315 315
307 306 305 304 304 301 299 298 296 300 299 296 298 305 311 314 316 318 319 319 319 320 320 320 319 320 319 318 315 317 316 315 316 316 315 315 315 315 315 316 317 317 317
306 305 304 304 303 301 299 297 296 301 302 299 297 301 309 312 314 316 317 319 319 321 319 322 322 322 316 318 314 316 317 317 318 317 317 317 317 317 317 317 316 316 315
304 304 304 303 302 300 298 295 297 300 302 301 298 302 307 312 313 314 316 318 318 321 319 320 322 322 317 315 314 315 318 318 318 319 318 318 317 317 316 315 315 314 314
303 303 303 302 301 299 296 295 298 301 302 302 300 305 306 311 312 313 315 317 316 318 320 320 320 319 318 316 317 317 318 319 319 319 318 318 319 317 316 315 313 313 313
302 302 302 301 300 298 295 298 300 302 302 301 301 305 305 310 311 313 314 316 318 320 320 318 320 319 318 318 317 317 318 318 319 320 319 317 318 317 318 316 313 313 313
302 302 301 301 299 295 297 300 302 302 302 302 304 306 307 309 311 313 313 314 317 318 319 318 318 319 319 319 318 318 318 318 320 320 320 319 318 318 318 315 314 314 315
301 301 301 300 297 295 299 301 301 302 302 304 306 307 308 309 310 314 315 313 316 317 319 318 319 319 319 320 320 319 319 319 319 318 319 319 317 317 314 313 313 313 315
301 301 300 299 295 295 301 301 302 302 304 305 308 308 310 311 312 314 314 315 316 318 317 320 319 320 320 320 320 320 320 320 319 315 316 316 316 316 314 314 313 314 315
300 300 299 297 294 296 301 301 302 302 303 305 307 308 310 313 313 315 314 314 316 317 319 318 319 319 320 320 321 319 320 319 319 318 314 314 314 313 313 313 313 313 313
299 299 298 295 294 297 301 302 302 302 303 304 305 308 311 313 313 314 314 315 316 317 318 319 319 320 320 321 320 320 320 320 319 318 316 313 313 312 312 312 312 312 315